QPF
0.00 0.00 0.00 0.00 0.00 0.00 0.00 0.00 0.00 0.00 0.00 0.00 0.00 0.00 0.01 0.00 0.00 0.00 0.00 0.00 0.00 0.00 0.00 0.00 0.00 0.00 0.00 0.00 0.00 0.00 0.00 0.00 0.00 0.00 0.00 0.00 0.00 0.00 0.00 0.00 0.03 0.00 0.00 0.03 0.01 0.01 0.02 0.00 0.00
0.00 0.00 0.00 0.00 0.00 0.00 0.00 0.01 0.01 0.02 0.00 0.00 0.00 0.00 0.00 0.01 0.00 0.00 0.00 0.00 0.00 0.00 0.00 0.00 0.00 0.00 0.00 0.00 0.00 0.00 0.00 0.00 0.00 0.00 0.00 0.00 0.00 0.00 0.00 0.00 0.03 0.00 0.02 0.03 0.02 0.03 0.02 0.00 0.00
0.00 0.00 0.00 0.00 0.00 0.00 0.00 0.01 0.01 0.00 0.00 0.00 0.00 0.00 0.00 0.00 0.00 0.00 0.00 0.00 0.00 0.00 0.00 0.00 0.01 0.00 0.00 0.03 0.03 0.00 0.00 0.00 0.00 0.00 0.00 0.00 0.00 0.00 0.01 0.01 0.00 0.00 0.03 0.05 0.01 0.01 0.00 0.00 0.00
0.00 0.00 0.00 0.00 0.00 0.00 0.00 0.00 0.00 0.00 0.00 0.00 0.00 0.00 0.00 0.00 0.00 0.00 0.00 0.00 0.00 0.00 0.00 0.00 0.03 0.00 0.00 0.02 0.02 0.00 0.00 0.00 0.00 0.00 0.00 0.00 0.00 0.00 0.00 0.00 0.00 0.00 0.00 0.00 0.00 0.00 0.00 0.00 0.00
0.00 0.00 0.00 0.00 0.00 0.00 0.00 0.00 0.00 0.00 0.00 0.00 0.00 0.00 0.00 0.00 0.00 0.00 0.00 0.00 0.00 0.00 0.00 0.00 0.01 0.00 0.00 0.00 0.00 0.00 0.00 0.01 0.00 0.00 0.00 0.00 0.00 0.00 0.01 0.00 0.00 0.00 0.00 0.00 0.00 0.00 0.00 0.00 0.00
0.00 0.00 0.00 0.00 0.00 0.00 0.00 0.00 0.00 0.00 0.00 0.00 0.00 0.00 0.00 0.00 0.00 0.00 0.00 0.00 0.00 0.00 0.00 0.00 0.01 0.00 0.00 0.00 0.00 0.00 0.00 0.00 0.00 0.00 0.00 0.00 0.00 0.00 0.00 0.00 0.00 0.00 0.00 0.00 0.00 0.00 0.00 0.00 0.00
0.00 0.00 0.00 0.00 0.00 0.00 0.00 0.00 0.00 0.00 0.00 0.00 0.00 0.00 0.00 0.00 0.00 0.00 0.00 0.00 0.00 0.00 0.00 0.00 0.00 0.00 0.00 0.00 0.00 0.00 0.00 0.00 0.00 0.00 0.00 0.00 0.00 0.00 0.00 0.02 0.04 0.01 0.04 0.01 0.00 0.00 0.00 0.00 0.00
0.00 0.00 0.00 0.00 0.00 0.00 0.00 0.00 0.00 0.00 0.00 0.00 0.00 0.00 0.00 0.00 0.00 0.00 0.00 0.00 0.00 0.00 0.00 0.00 0.00 0.00 0.00 0.00 0.00 0.00 0.00 0.00 0.00 0.00 0.00 0.00 0.00 0.00 0.00 0.01 0.05 0.02 0.00 0.00 0.00 0.00 0.00 0.00 0.00
0.00 0.00 0.00 0.00 0.00 0.00 0.00 0.00 0.00 0.00 0.00 0.00 0.00 0.00 0.00 0.00 0.00 0.00 0.00 0.00 0.00 0.00 0.00 0.00 0.00 0.00 0.00 0.00 0.00 0.00 0.00 0.00 0.00 0.00 0.00 0.00 0.00 0.00 0.00 0.00 0.00 0.00 0.00 0.00 0.00 0.00 0.07 0.05 0.00
0.00 0.00 0.00 0.01 0.00 0.00 0.00 0.00 0.00 0.00 0.00 0.00 0.00 0.00 0.00 0.00 0.00 0.00 0.00 0.00 0.00 0.00 0.00 0.00 0.00 0.00 0.00 0.00 0.00 0.00 0.00 0.00 0.00 0.00 0.00 0.00 0.00 0.00 0.00 0.00 0.00 0.00 0.00 0.00 0.01 0.01 0.03 0.02 0.00
0.00 0.01 0.01 0.00 0.00 0.00 0.00 0.00 0.00 0.00 0.00 0.00 0.00 0.00 0.00 0.00 0.00 0.00 0.00 0.00 0.00 0.00 0.00 0.00 0.00 0.00 0.00 0.00 0.00 0.00 0.00 0.00 0.00 0.00 0.00 0.00 0.00 0.00 0.00 0.00 0.01 0.02 0.02 0.00 0.01 0.01 0.01 0.02 0.00
0.00 0.00 0.00 0.00 0.00 0.00 0.00 0.00 0.00 0.00 0.00 0.00 0.00 0.00 0.00 0.00 0.00 0.00 0.00 0.00 0.00 0.00 0.00 0.00 0.00 0.00 0.00 0.00 0.00 0.00 0.00 0.00 0.00 0.00 0.00 0.00 0.00 0.00 0.00 0.00 0.00 0.00 0.00 0.00 0.00 0.00 0.00 0.00 0.00
0.00 0.00 0.00 0.00 0.00 0.00 0.00 0.00 0.01 0.00 0.00 0.00 0.00 0.00 0.00 0.00 0.00 0.00 0.00 0.00 0.00 0.00 0.00 0.00 0.00 0.00 0.00 0.00 0.00 0.00 0.00 0.00 0.00 0.00 0.00 0.00 0.00 0.00 0.00 0.00 0.00 0.00 0.00 0.00 0.00 0.00 0.00 0.00 0.00
0.00 0.00 0.00 0.00 0.00 0.00 0.00 0.01 0.00 0.00 0.00 0.00 0.00 0.00 0.00 0.00 0.00 0.00 0.00 0.00 0.00 0.00 0.00 0.00 0.00 0.00 0.00 0.00 0.00 0.00 0.00 0.00 0.00 0.00 0.00 0.00 0.00 0.00 0.00 0.00 0.00 0.00 0.00 0.00 0.00 0.00 0.00 0.00 0.00
0.00 0.00 0.00 0.00 0.00 0.00 0.00 0.00 0.00 0.00 0.00 0.00 0.00 0.00 0.00 0.00 0.00 0.00 0.00 0.00 0.00 0.00 0.00 0.00 0.00 0.00 0.00 0.00 0.00 0.00 0.00 0.00 0.00 0.00 0.00 0.00 0.00 0.00 0.01 0.00 0.00 0.00 0.00 0.00 0.00 0.00 0.00 0.00 0.00
0.00 0.00 0.00 0.00 0.00 0.00 0.00 0.00 0.00 0.00 0.00 0.00 0.00 0.00 0.00 0.00 0.00 0.00 0.00 0.00 0.00 0.00 0.00 0.00 0.00 0.00 0.00 0.00 0.00 0.00 0.00 0.00 0.00 0.00 0.00 0.00 0.00 0.01 0.00 0.00 0.00 0.00 0.00 0.00 0.00 0.00 0.00 0.00 0.00
0.00 0.00 0.00 0.00 0.00 0.00 0.00 0.00 0.00 0.00 0.00 0.00 0.00 0.00 0.00 0.00 0.00 0.00 0.00 0.00 0.00 0.00 0.00 0.00 0.00 0.00 0.00 0.00 0.00 0.00 0.00 0.00 0.00 0.00 0.00 0.00 0.00 0.00 0.00 0.00 0.00 0.00 0.00 0.00 0.01 0.00 0.01 0.00 0.00
0.00 0.00 0.00 0.00 0.00 0.00 0.00 0.00 0.00 0.00 0.00 0.00 0.00 0.00 0.00 0.00 0.00 0.00 0.00 0.00 0.00 0.00 0.00 0.00 0.00 0.00 0.00 0.00 0.00 0.00 0.00 0.00 0.00 0.00 0.00 0.00 0.00 0.00 0.00 0.00 0.00 0.00 0.00 0.00 0.00 0.00 0.00 0.00 0.00
0.00 0.00 0.00 0.00 0.00 0.00 0.00 0.00 0.00 0.00 0.00 0.00 0.00 0.00 0.00 0.00 0.00 0.00 0.00 0.00 0.00 0.00 0.00 0.00 0.00 0.00 0.00 0.00 0.00 0.00 0.00 0.00 0.00 0.00 0.00 0.00 0.00 0.00 0.00 0.00 0.00 0.00 0.00 0.00 0.00 0.03 0.08 0.07 0.01
0.00 0.00 0.00 0.00 0.00 0.00 0.00 0.00 0.00 0.00 0.00 0.00 0.00 0.00 0.00 0.00 0.00 0.00 0.00 0.00 0.00 0.00 0.00 0.00 0.02 0.00 0.00 0.00 0.00 0.00 0.00 0.00 0.00 0.00 0.00 0.00 0.00 0.00 0.00 0.00 0.00 0.00 0.00 0.00 0.00 0.06 0.13 0.03 0.00
0.00 0.00 0.00 0.00 0.00 0.00 0.00 0.00 0.00 0.00 0.00 0.00 0.00 0.00 0.00 0.00 0.00 0.00 0.00 0.00 0.00 0.00 0.00 0.00 0.01 0.02 0.00 0.00 0.00 0.00 0.00 0.00 0.00 0.00 0.00 0.00 0.00 0.00 0.00 0.00 0.00 0.00 0.00 0.01 0.01 0.01 0.05 0.04 0.02
0.00 0.00 0.00 0.00 0.00 0.00 0.00 0.00 0.00 0.00 0.00 0.00 0.00 0.00 0.00 0.00 0.00 0.00 0.00 0.00 0.00 0.00 0.00 0.00 0.00 0.00 0.00 0.00 0.00 0.00 0.00 0.00 0.00 0.00 0.00 0.00 0.00 0.00 0.00 0.00 0.00 0.00 0.01 0.04 0.05 0.05 0.01 0.05 0.09
0.00 0.00 0.00 0.00 0.00 0.00 0.00 0.00 0.00 0.00 0.00 0.00 0.00 0.00 0.00 0.00 0.00 0.00 0.00 0.00 0.00 0.00 0.00 0.00 0.00 0.00 0.00 0.00 0.00 0.00 0.01 0.01 0.01 0.00 0.00 0.00 0.00 0.00 0.00 0.00 0.00 0.00 0.00 0.03 0.06 0.05 0.03 0.01 0.08
0.00 0.00 0.00 0.00 0.00 0.00 0.00 0.00 0.00 0.00 0.00 0.00 0.00 0.00 0.00 0.00 0.00 0.00 0.00 0.00 0.00 0.00 0.00 0.00 0.00 0.00 0.00 0.00 0.00 0.00 0.02 0.03 0.03 0.04 0.03 0.01 0.00 0.00 0.00 0.00 0.00 0.02 0.06 0.08 0.09 0.15 0.15 0.13 0.11
0.00 0.00 0.00 0.00 0.00 0.00 0.00 0.00 0.00 0.00 0.00 0.00 0.00 0.00 0.00 0.00 0.00 0.00 0.00 0.00 0.00 0.00 0.00 0.00 0.00 0.00 0.00 0.00 0.00 0.00 0.01 0.02 0.02 0.04 0.03 0.01 0.00 0.00 0.03 0.04 0.07 0.10 0.20 0.22 0.18 0.17 0.15 0.12 0.13
0.00 0.00 0.00 0.00 0.00 0.00 0.00 0.00 0.00 0.00 0.00 0.00 0.00 0.00 0.00 0.00 0.00 0.00 0.00 0.00 0.00 0.00 0.00 0.00 0.00 0.00 0.00 0.00 0.00 0.00 0.00 0.01 0.03 0.04 0.03 0.01 0.01 0.05 0.07 0.08 0.13 0.16 0.19 0.23 0.24 0.17 0.14 0.09 0.06
0.00 0.00 0.00 0.00 0.00 0.00 0.00 0.00 0.00 0.00 0.00 0.00 0.00 0.00 0.00 0.00 0.00 0.00 0.00 0.00 0.00 0.00 0.00 0.00 0.00 0.00 0.00 0.00 0.00 0.00 0.01 0.02 0.03 0.05 0.06 0.01 0.02 0.06 0.11 0.09 0.11 0.18 0.19 0.17 0.10 0.06 0.05 0.02 0.03
0.00 0.00 0.00 0.00 0.00 0.00 0.00 0.00 0.00 0.00 0.00 0.00 0.00 0.00 0.00 0.00 0.00 0.00 0.00 0.00 0.00 0.00 0.00 0.00 0.00 0.00 0.00 0.00 0.00 0.01 0.02 0.02 0.04 0.06 0.08 0.04 0.04 0.08 0.11 0.14 0.16 0.12 0.09 0.08 0.04 0.02 0.01 0.00 0.02
0.00 0.00 0.00 0.00 0.00 0.00 0.00 0.00 0.00 0.00 0.00 0.00 0.00 0.00 0.00 0.00 0.00 0.00 0.00 0.00 0.00 0.00 0.00 0.00 0.00 0.00 0.00 0.00 0.00 0.02 0.01 0.03 0.06 0.09 0.11 0.02 0.04 0.05 0.05 0.06 0.05 0.02 0.01 0.00 0.00 0.02 0.01 0.00 0.01
0.00 0.00 0.00 0.00 0.00 0.00 0.00 0.00 0.00 0.00 0.00 0.00 0.00 0.00 0.00 0.00 0.00 0.00 0.00 0.00 0.00 0.00 0.00 0.00 0.00 0.00 0.00 0.00 0.00 0.01 0.00 0.02 0.03 0.05 0.07 0.08 0.08 0.05 0.04 0.04 0.01 0.00 0.00 0.00 0.00 0.00 0.00 0.00 0.00
MSLP
1009.30 1009.54 1009.93 1010.31 1011.02 1010.67 1010.62 1009.83 1009.31 1009.57 1009.61 1009.42 1009.88 1010.36 1010.87 1011.48 1012.20 1013.37 1012.83 1012.96 1013.20 1014.00 1014.24 1014.60 1015.08 1015.46 1015.75 1016.06 1016.32 1016.49 1016.70 1016.80 1016.84 1016.92 1017.06 1017.21 1017.44 1017.62 1017.76 1017.84 1018.06 1018.09 1018.13 1018.11 1018.05 1018.09 1018.14 1018.19 1018.26
1009.20 1009.61 1010.05 1010.30 1010.76 1011.02 1010.58 1009.61 1009.49 1009.38 1009.49 1009.54 1009.97 1010.27 1010.89 1011.89 1012.34 1012.92 1013.30 1013.41 1013.40 1014.03 1014.41 1014.76 1015.19 1015.54 1015.84 1016.13 1016.35 1016.57 1016.84 1016.97 1016.99 1017.10 1017.14 1017.29 1017.50 1017.68 1017.86 1017.97 1018.21 1018.19 1018.27 1018.26 1018.16 1018.17 1018.22 1018.38 1018.41
1009.19 1009.36 1009.96 1010.37 1010.77 1010.59 1010.13 1009.64 1009.55 1009.38 1009.46 1009.45 1009.93 1010.35 1011.19 1012.37 1012.90 1013.14 1013.11 1013.50 1013.80 1014.53 1014.85 1015.05 1015.33 1015.68 1015.97 1016.16 1016.39 1016.63 1016.85 1017.02 1017.14 1017.19 1017.24 1017.39 1017.56 1017.64 1017.95 1018.07 1018.19 1018.24 1018.35 1018.33 1018.22 1018.24 1018.32 1018.42 1018.44
1009.08 1009.58 1010.27 1010.29 1010.20 1009.61 1009.31 1009.26 1009.10 1009.34 1009.44 1009.52 1009.98 1011.01 1011.68 1012.06 1012.48 1012.76 1013.33 1013.65 1014.21 1014.82 1015.08 1015.20 1015.51 1015.78 1016.03 1016.22 1016.43 1016.65 1016.88 1017.02 1017.21 1017.28 1017.31 1017.43 1017.59 1017.78 1018.01 1018.11 1018.21 1018.30 1018.28 1018.25 1018.22 1018.35 1018.38 1018.36 1018.36
1009.20 1009.73 1010.29 1010.29 1009.61 1008.98 1008.54 1008.61 1009.08 1009.09 1009.35 1009.75 1010.01 1011.48 1012.23 1012.55 1012.52 1012.86 1013.36 1013.74 1014.23 1014.91 1015.05 1015.15 1015.36 1015.66 1015.98 1016.30 1016.48 1016.60 1016.88 1017.12 1017.23 1017.27 1017.33 1017.46 1017.64 1017.92 1018.00 1018.12 1018.23 1018.30 1018.33 1018.30 1018.25 1018.31 1018.37 1018.46 1018.44
1009.53 1010.14 1010.55 1010.51 1009.48 1008.40 1007.99 1008.12 1008.60 1008.93 1009.44 1009.96 1010.56 1011.45 1012.69 1012.84 1012.88 1013.30 1013.67 1013.94 1014.16 1014.75 1015.00 1015.15 1015.34 1015.61 1015.92 1016.21 1016.40 1016.60 1016.85 1017.01 1017.19 1017.22 1017.39 1017.51 1017.72 1018.01 1018.19 1018.16 1018.26 1018.31 1018.34 1018.32 1018.33 1018.34 1018.42 1018.52 1018.55
1009.88 1010.55 1010.87 1010.32 1009.31 1008.19 1007.86 1007.96 1008.48 1008.92 1009.38 1009.95 1010.42 1011.80 1013.04 1013.27 1013.38 1013.57 1013.94 1014.19 1014.44 1014.72 1015.08 1015.30 1015.37 1015.56 1015.83 1016.16 1016.40 1016.67 1016.80 1016.97 1017.11 1017.19 1017.42 1017.59 1017.81 1018.12 1018.15 1018.21 1018.27 1018.40 1018.48 1018.48 1018.56 1018.57 1018.59 1018.65 1018.62
1010.36 1010.70 1010.57 1009.99 1009.24 1008.30 1007.67 1007.93 1008.35 1008.82 1009.37 1009.67 1010.14 1011.45 1012.70 1012.88 1013.34 1013.78 1014.23 1014.67 1014.96 1015.10 1015.21 1015.44 1015.56 1015.65 1015.82 1016.01 1016.25 1016.49 1016.74 1016.98 1017.23 1017.33 1017.53 1017.68 1017.86 1018.15 1018.21 1018.30 1018.50 1018.53 1018.59 1018.55 1018.53 1018.55 1018.52 1018.60 1018.74
1010.15 1010.53 1010.57 1009.63 1008.85 1008.02 1007.44 1007.70 1008.37 1008.60 1009.24 1009.62 1010.11 1010.76 1011.22 1012.58 1013.56 1014.16 1014.66 1015.02 1015.24 1015.43 1015.51 1015.50 1015.72 1015.87 1016.01 1016.21 1016.34 1016.50 1016.72 1016.96 1017.19 1017.26 1017.37 1017.64 1017.96 1018.20 1018.30 1018.35 1018.44 1018.45 1018.46 1018.52 1018.49 1018.42 1018.43 1018.50 1018.86
1010.16 1010.49 1009.92 1009.11 1008.46 1007.72 1007.34 1007.47 1008.00 1008.81 1009.42 1009.91 1010.62 1011.03 1011.59 1012.57 1013.38 1013.96 1014.53 1014.87 1015.13 1015.35 1015.48 1015.59 1015.75 1016.00 1016.19 1016.22 1016.35 1016.55 1016.86 1017.11 1017.26 1017.36 1017.47 1017.69 1017.96 1018.17 1018.34 1018.42 1018.44 1018.43 1018.39 1018.39 1018.41 1018.27 1018.31 1018.49 1018.99
1009.90 1009.77 1008.66 1008.22 1007.71 1007.08 1007.21 1007.47 1007.90 1008.61 1009.55 1009.58 1010.40 1011.54 1012.09 1012.73 1013.44 1013.76 1014.08 1014.23 1014.69 1015.14 1015.54 1015.74 1015.90 1015.99 1016.11 1016.07 1016.34 1016.57 1016.84 1017.14 1017.40 1017.54 1017.66 1017.78 1017.90 1018.14 1018.31 1018.45 1018.54 1018.43 1018.40 1018.37 1018.32 1018.19 1018.32 1018.47 1019.03
1009.84 1009.21 1008.83 1007.66 1006.90 1006.87 1006.93 1007.21 1007.89 1008.40 1008.68 1008.73 1010.15 1010.96 1012.01 1012.90 1013.39 1013.67 1013.98 1014.24 1014.56 1014.97 1015.28 1015.54 1015.72 1016.08 1016.29 1016.37 1016.47 1016.58 1016.80 1017.11 1017.31 1017.36 1017.51 1017.79 1017.90 1018.06 1018.22 1018.38 1018.40 1018.48 1018.43 1018.50 1018.44 1018.14 1018.21 1018.46 1018.84
1009.76 1008.93 1008.07 1007.13 1006.47 1006.59 1006.75 1007.28 1007.47 1008.24 1008.59 1008.86 1010.25 1011.31 1012.09 1012.68 1012.92 1013.21 1013.35 1013.94 1014.37 1014.66 1014.96 1015.20 1015.61 1016.04 1016.22 1016.43 1016.43 1016.54 1016.68 1016.87 1017.07 1017.38 1017.55 1017.67 1017.76 1017.86 1018.04 1018.14 1018.33 1018.36 1018.42 1018.35 1018.35 1018.21 1018.04 1018.42 1018.55
1009.30 1008.78 1007.88 1007.33 1006.96 1006.85 1007.18 1007.40 1007.75 1008.61 1008.92 1009.55 1010.53 1011.23 1011.79 1012.19 1012.52 1012.83 1013.28 1013.64 1014.02 1014.31 1014.56 1015.02 1015.35 1015.46 1015.82 1016.18 1016.29 1016.38 1016.54 1016.69 1017.04 1017.21 1017.22 1017.40 1017.66 1017.74 1017.82 1017.82 1017.95 1018.13 1018.25 1018.30 1018.32 1018.31 1018.20 1018.19 1018.62
1008.98 1008.61 1008.00 1007.74 1007.14 1006.91 1007.13 1007.64 1008.34 1008.78 1009.36 1009.86 1010.44 1011.07 1011.57 1011.73 1012.18 1012.18 1012.30 1012.80 1013.24 1013.64 1014.09 1014.53 1014.99 1015.24 1015.58 1015.77 1015.93 1016.16 1016.26 1016.41 1016.63 1016.87 1017.09 1017.14 1017.23 1017.43 1017.56 1017.58 1017.50 1017.49 1017.78 1017.91 1017.94 1018.20 1018.16 1018.26 1018.43
1009.38 1009.13 1008.82 1008.14 1007.79 1007.65 1007.73 1007.95 1008.58 1008.93 1009.49 1010.06 1010.44 1010.78 1011.07 1011.31 1011.25 1011.49 1011.80 1012.25 1012.80 1013.36 1013.79 1014.20 1014.66 1015.07 1015.41 1015.38 1015.60 1015.87 1015.97 1016.08 1016.23 1016.34 1016.53 1016.71 1016.82 1016.95 1017.26 1017.39 1017.29 1017.32 1017.38 1017.52 1017.63 1017.94 1018.20 1018.20 1018.37
1009.82 1009.50 1009.16 1008.53 1008.16 1008.21 1008.42 1008.42 1008.70 1008.94 1009.58 1010.15 1010.32 1010.45 1010.46 1010.72 1011.08 1011.18 1011.40 1011.76 1012.15 1012.58 1013.19 1013.69 1014.07 1014.40 1014.77 1015.15 1015.12 1015.43 1015.57 1015.68 1015.64 1015.89 1016.09 1016.27 1016.46 1016.65 1016.83 1016.96 1016.74 1016.90 1017.19 1017.35 1017.53 1017.69 1017.88 1018.15 1018.20
1009.72 1009.52 1009.25 1008.88 1008.50 1008.60 1008.72 1008.39 1008.83 1009.23 1009.57 1009.90 1010.11 1010.28 1010.26 1010.25 1010.03 1010.26 1010.76 1011.09 1011.56 1011.92 1012.51 1013.04 1013.49 1013.77 1014.27 1014.85 1015.19 1015.25 1015.45 1015.32 1015.29 1015.35 1015.54 1015.62 1015.87 1016.16 1016.44 1016.53 1016.54 1016.62 1017.00 1017.26 1017.53 1017.63 1017.76 1017.97 1018.16
1009.28 1009.24 1009.16 1008.61 1008.24 1008.66 1008.73 1008.80 1008.79 1009.07 1009.57 1010.04 1010.09 1009.84 1010.22 1009.98 1009.58 1009.92 1010.06 1010.46 1010.94 1011.47 1011.95 1012.30 1012.85 1013.37 1014.06 1014.37 1014.72 1015.06 1014.90 1014.93 1015.00 1014.79 1014.80 1015.05 1015.19 1015.38 1015.79 1016.02 1016.18 1016.38 1016.72 1016.79 1017.07 1017.42 1017.75 1017.96 1018.08
1008.98 1009.09 1008.90 1008.47 1008.23 1008.59 1008.75 1008.75 1008.62 1008.99 1009.10 1009.30 1009.38 1009.65 1009.95 1009.62 1009.39 1009.40 1009.53 1009.81 1010.10 1010.44 1010.93 1011.48 1012.01 1012.34 1012.82 1013.26 1013.54 1013.96 1014.14 1014.21 1014.09 1014.06 1014.12 1014.24 1014.49 1014.64 1015.00 1015.38 1015.74 1016.08 1016.48 1016.65 1016.99 1017.18 1017.64 1017.75 1017.97
1008.50 1008.68 1008.59 1008.63 1008.49 1008.68 1009.02 1008.98 1009.00 1008.73 1008.88 1008.78 1008.74 1008.80 1009.04 1008.90 1008.84 1009.05 1009.15 1009.17 1009.14 1009.52 1009.80 1010.38 1010.82 1011.19 1011.53 1012.09 1012.97 1013.55 1013.83 1013.94 1014.02 1013.98 1013.91 1013.82 1013.90 1014.09 1014.37 1014.63 1015.09 1015.52 1015.83 1015.95 1016.17 1016.52 1017.08 1017.53 1017.93
1007.89 1007.39 1007.95 1008.60 1009.10 1009.50 1009.58 1010.06 1008.77 1008.35 1008.16 1008.06 1007.89 1008.06 1008.25 1008.20 1008.31 1008.29 1008.34 1008.42 1008.44 1008.32 1008.93 1009.35 1009.73 1010.27 1010.59 1011.29 1011.93 1012.32 1012.46 1012.78 1012.52 1012.69 1013.12 1013.11 1013.13 1013.34 1013.65 1013.98 1014.36 1014.82 1015.18 1015.52 1015.71 1015.96 1016.28 1016.99 1017.53
1006.96 1006.96 1008.01 1008.80 1009.79 1010.12 1010.29 1010.41 1008.65 1008.34 1007.70 1007.17 1006.82 1006.97 1007.13 1007.20 1007.45 1007.41 1007.46 1007.43 1007.66 1008.17 1008.44 1008.75 1009.03 1009.54 1009.98 1010.52 1010.69 1011.35 1011.87 1011.82 1012.15 1012.62 1012.95 1013.07 1013.06 1013.11 1013.07 1013.08 1013.39 1014.03 1014.50 1014.77 1015.16 1015.62 1016.05 1016.32 1016.95
1006.60 1007.63 1008.78 1009.81 1010.72 1011.39 1010.71 1010.47 1008.87 1007.96 1006.87 1006.51 1006.05 1006.13 1006.13 1006.16 1006.54 1006.62 1006.91 1007.27 1007.42 1007.68 1008.06 1008.39 1008.69 1008.91 1009.60 1010.00 1010.38 1010.62 1011.23 1011.66 1012.23 1012.58 1013.16 1013.39 1013.18 1013.18 1013.26 1013.27 1013.58 1013.63 1013.91 1014.29 1014.48 1014.80 1015.43 1015.95 1016.26
1006.64 1008.22 1009.85 1011.23 1011.92 1011.52 1010.85 1010.50 1008.18 1006.82 1006.15 1005.86 1005.55 1005.51 1005.47 1005.82 1006.08 1006.50 1006.82 1007.12 1007.40 1007.64 1007.91 1008.29 1008.70 1008.87 1009.32 1009.80 1010.19 1010.37 1010.72 1011.33 1011.66 1012.08 1012.61 1012.97 1012.96 1012.90 1012.71 1012.82 1012.98 1013.41 1013.59 1013.83 1014.20 1014.42 1015.03 1015.83 1015.94
1006.51 1007.88 1009.50 1010.91 1012.10 1011.58 1010.87 1009.88 1007.11 1005.89 1005.31 1005.32 1005.20 1005.09 1005.24 1005.49 1005.87 1006.36 1006.73 1007.00 1007.18 1007.45 1007.92 1008.44 1008.69 1009.11 1009.37 1009.75 1010.01 1010.29 1010.55 1010.87 1011.33 1011.51 1012.00 1012.38 1012.36 1012.32 1012.06 1011.72 1012.66 1013.17 1013.16 1013.44 1014.11 1014.04 1014.09 1014.28 1015.43
1006.54 1007.87 1008.81 1010.58 1012.01 1011.99 1010.76 1009.07 1006.81 1005.68 1005.37 1005.43 1005.35 1005.22 1005.35 1005.55 1005.88 1005.95 1006.32 1006.79 1007.25 1007.63 1007.88 1008.16 1008.57 1008.70 1008.91 1009.24 1009.63 1009.73 1010.03 1010.44 1010.66 1010.91 1011.29 1011.60 1011.69 1011.81 1012.04 1011.75 1012.63 1013.11 1013.21 1013.17 1013.42 1013.35 1013.47 1012.33 1014.12
1006.13 1007.55 1009.05 1010.56 1011.93 1012.35 1011.23 1010.01 1008.20 1006.60 1005.97 1005.88 1005.78 1005.55 1005.64 1005.88 1006.18 1006.09 1006.43 1006.84 1007.16 1007.56 1007.92 1008.14 1008.35 1008.57 1008.67 1008.85 1009.02 1009.14 1009.35 1009.55 1009.95 1010.28 1010.51 1010.76 1010.92 1011.07 1011.55 1011.42 1011.45 1012.65 1013.32 1013.15 1013.07 1013.24 1013.38 1013.84 1014.11
1006.95 1007.88 1009.52 1010.89 1011.74 1012.24 1012.03 1009.96 1007.44 1006.93 1006.61 1006.34 1006.04 1005.87 1005.92 1006.06 1006.46 1006.34 1006.58 1006.80 1007.12 1007.61 1007.95 1008.29 1008.53 1008.70 1008.84 1008.97 1009.01 1009.06 1009.14 1009.27 1009.58 1009.73 1009.79 1010.16 1010.40 1010.60 1010.72 1011.08 1011.54 1012.77 1012.82 1013.29 1013.14 1013.39 1013.71 1013.89 1014.13
1007.48 1008.09 1009.29 1011.06 1012.24 1012.48 1011.77 1009.23 1007.47 1007.11 1006.71 1006.22 1005.85 1005.97 1005.99 1006.38 1006.69 1006.65 1006.79 1007.01 1007.31 1007.65 1008.09 1008.39 1008.56 1008.64 1008.72 1008.75 1008.79 1008.70 1008.65 1008.89 1008.92 1008.88 1009.15 1009.51 1010.09 1010.16 1010.25 1010.65 1011.08 1011.67 1012.10 1013.09 1013.13 1013.55 1013.72 1013.74 1013.98
Thickness
5814 5811 5807 5795 5764 5756 5744 5763 5777 5769 5772 5788 5791 5782 5776 5779 5771 5752 5786 5789 5790 5784 5781 5777 5773 5769 5768 5767 5765 5764 5762 5762 5762 5762 5762 5762 5761 5757 5755 5753 5752 5752 5751 5751 5751 5750 5751 5750 5749
5817 5813 5802 5786 5751 5734 5740 5772 5766 5774 5780 5788 5788 5787 5779 5767 5781 5777 5779 5787 5787 5783 5781 5778 5773 5770 5769 5768 5766 5764 5763 5763 5763 5763 5763 5763 5762 5758 5755 5754 5753 5753 5752 5752 5753 5752 5752 5750 5749
5821 5817 5791 5772 5750 5742 5746 5771 5768 5781 5786 5790 5784 5791 5783 5770 5778 5780 5788 5788 5785 5779 5778 5777 5774 5771 5769 5768 5766 5765 5764 5764 5763 5763 5764 5764 5763 5760 5756 5755 5756 5754 5754 5754 5754 5754 5753 5752 5752
5818 5808 5793 5767 5764 5774 5774 5776 5785 5781 5790 5796 5791 5774 5785 5792 5787 5790 5790 5788 5783 5777 5777 5776 5774 5772 5771 5770 5768 5767 5766 5765 5764 5764 5765 5766 5764 5761 5758 5758 5758 5756 5756 5756 5756 5756 5755 5755 5755
5819 5803 5775 5769 5774 5784 5793 5795 5791 5787 5791 5791 5795 5773 5774 5787 5794 5794 5791 5789 5784 5779 5779 5779 5776 5774 5773 5771 5770 5769 5768 5766 5766 5766 5768 5767 5765 5761 5760 5759 5758 5757 5757 5757 5758 5757 5757 5756 5756
5801 5797 5769 5757 5774 5796 5803 5804 5800 5794 5794 5793 5788 5782 5776 5790 5791 5792 5792 5790 5787 5783 5781 5780 5778 5776 5774 5772 5771 5770 5769 5769 5768 5768 5768 5767 5764 5762 5761 5760 5760 5759 5759 5758 5758 5759 5758 5757 5757
5798 5784 5769 5771 5779 5792 5803 5811 5798 5796 5794 5791 5799 5775 5778 5785 5790 5793 5792 5790 5788 5785 5783 5781 5780 5778 5775 5773 5771 5770 5770 5770 5769 5769 5769 5767 5765 5763 5763 5762 5761 5761 5760 5759 5759 5758 5758 5757 5758
5798 5792 5782 5783 5776 5783 5808 5811 5811 5804 5797 5811 5808 5779 5775 5791 5795 5794 5792 5789 5787 5786 5784 5782 5780 5779 5777 5775 5773 5772 5772 5770 5769 5769 5768 5767 5765 5764 5764 5763 5762 5762 5761 5761 5761 5759 5759 5757 5756
5811 5781 5770 5783 5786 5794 5816 5808 5817 5821 5808 5811 5812 5804 5807 5802 5798 5791 5787 5785 5784 5784 5784 5783 5780 5779 5778 5776 5774 5773 5773 5771 5770 5771 5770 5768 5767 5766 5765 5764 5764 5764 5763 5762 5762 5762 5761 5759 5755
5798 5781 5786 5804 5807 5805 5817 5816 5812 5807 5804 5803 5801 5809 5810 5804 5798 5792 5786 5784 5783 5783 5783 5784 5782 5779 5778 5777 5776 5774 5773 5772 5771 5771 5770 5770 5769 5768 5766 5765 5764 5764 5764 5763 5762 5764 5763 5761 5757
5802 5789 5811 5814 5822 5828 5818 5812 5820 5805 5795 5807 5801 5799 5802 5800 5796 5794 5792 5792 5790 5788 5785 5783 5781 5780 5780 5780 5778 5775 5774 5773 5772 5771 5771 5770 5769 5769 5768 5766 5764 5765 5765 5766 5765 5766 5764 5763 5758
5798 5812 5812 5822 5834 5830 5821 5825 5812 5814 5816 5827 5815 5812 5804 5796 5792 5793 5792 5793 5792 5789 5788 5787 5784 5781 5779 5779 5778 5777 5775 5773 5772 5773 5772 5771 5770 5770 5769 5768 5766 5766 5768 5766 5766 5767 5766 5764 5761
5800 5814 5824 5834 5839 5837 5837 5820 5822 5818 5825 5829 5818 5809 5802 5798 5797 5799 5800 5797 5795 5793 5792 5791 5787 5782 5780 5779 5779 5779 5777 5776 5774 5772 5771 5770 5770 5771 5770 5769 5767 5766 5765 5766 5767 5766 5768 5765 5764
5811 5815 5823 5831 5834 5836 5824 5822 5826 5818 5825 5819 5812 5807 5806 5803 5802 5802 5800 5798 5796 5795 5794 5791 5789 5786 5783 5781 5780 5779 5779 5777 5774 5773 5773 5771 5769 5770 5770 5771 5770 5767 5766 5766 5766 5765 5765 5764 5762
5820 5811 5823 5823 5830 5827 5830 5812 5807 5820 5821 5815 5812 5809 5807 5809 5806 5804 5807 5804 5802 5799 5797 5794 5790 5787 5785 5784 5782 5780 5779 5778 5776 5774 5772 5772 5771 5770 5769 5769 5771 5772 5769 5767 5767 5766 5765 5763 5762
5803 5805 5790 5817 5822 5825 5821 5790 5814 5821 5816 5811 5812 5812 5811 5810 5812 5812 5812 5808 5806 5801 5797 5796 5793 5789 5785 5785 5782 5780 5779 5778 5776 5776 5774 5772 5771 5771 5770 5768 5769 5770 5769 5769 5768 5767 5764 5763 5761
5793 5779 5788 5802 5821 5817 5812 5798 5815 5822 5817 5811 5813 5815 5815 5815 5812 5815 5816 5814 5812 5808 5802 5798 5796 5793 5790 5786 5786 5783 5781 5780 5779 5776 5774 5772 5770 5769 5769 5768 5770 5770 5767 5766 5766 5767 5766 5762 5761
5786 5788 5793 5790 5811 5813 5807 5805 5817 5820 5818 5816 5814 5813 5816 5816 5820 5823 5821 5821 5818 5814 5809 5805 5801 5798 5793 5788 5783 5782 5781 5782 5781 5779 5776 5775 5772 5769 5768 5767 5768 5768 5764 5762 5762 5763 5763 5761 5759
5806 5800 5795 5805 5820 5809 5806 5806 5815 5820 5815 5812 5813 5815 5813 5818 5828 5828 5828 5825 5822 5817 5813 5810 5803 5800 5794 5789 5782 5778 5779 5781 5782 5783 5782 5777 5773 5770 5766 5765 5765 5764 5762 5762 5760 5759 5756 5756 5756
5806 5800 5798 5812 5825 5816 5810 5807 5817 5819 5820 5821 5820 5818 5818 5823 5827 5830 5831 5829 5827 5825 5822 5816 5810 5806 5802 5798 5793 5788 5786 5785 5785 5784 5783 5780 5776 5772 5767 5765 5763 5761 5759 5759 5757 5754 5748 5750 5750
5806 5802 5803 5808 5820 5821 5811 5800 5811 5824 5828 5830 5832 5833 5830 5830 5832 5830 5832 5831 5834 5830 5829 5825 5821 5815 5812 5807 5798 5790 5787 5784 5781 5778 5778 5778 5775 5773 5769 5765 5761 5759 5758 5758 5757 5754 5748 5742 5742
5797 5826 5823 5818 5802 5782 5812 5768 5805 5819 5825 5831 5836 5836 5834 5837 5838 5838 5838 5836 5837 5839 5836 5831 5827 5822 5818 5811 5802 5797 5793 5787 5791 5788 5782 5778 5774 5771 5767 5764 5760 5757 5755 5753 5754 5753 5748 5741 5736
5820 5839 5823 5817 5795 5796 5794 5777 5799 5816 5828 5834 5842 5843 5844 5846 5845 5846 5845 5847 5845 5842 5839 5836 5831 5824 5819 5812 5808 5799 5791 5792 5786 5781 5776 5772 5768 5765 5764 5763 5759 5755 5752 5751 5747 5743 5740 5738 5732
5841 5822 5807 5794 5782 5760 5785 5785 5793 5808 5829 5839 5848 5851 5851 5853 5852 5853 5851 5848 5846 5845 5841 5836 5831 5827 5818 5811 5805 5799 5790 5784 5775 5770 5763 5760 5758 5755 5753 5749 5746 5746 5746 5745 5743 5740 5734 5729 5729
5828 5798 5760 5763 5754 5758 5780 5781 5800 5833 5841 5846 5851 5855 5856 5855 5853 5849 5847 5844 5841 5839 5836 5831 5826 5821 5816 5808 5800 5794 5786 5777 5772 5765 5758 5752 5750 5746 5748 5742 5741 5739 5738 5739 5734 5730 5726 5720 5722
5825 5805 5766 5765 5749 5762 5787 5774 5810 5846 5851 5853 5857 5861 5859 5858 5855 5851 5846 5842 5839 5835 5829 5823 5819 5813 5807 5800 5793 5787 5780 5773 5766 5761 5753 5746 5744 5742 5742 5744 5739 5733 5733 5732 5727 5727 5726 5717 5717
5821 5802 5809 5763 5755 5756 5770 5795 5829 5848 5848 5847 5850 5855 5851 5853 5851 5849 5846 5840 5833 5828 5824 5820 5815 5811 5806 5797 5789 5784 5777 5768 5762 5756 5749 5742 5739 5734 5731 5734 5727 5723 5724 5723 5723 5718 5718 5720 5717
5835 5823 5791 5768 5762 5758 5755 5767 5783 5824 5833 5837 5838 5840 5843 5845 5843 5841 5837 5832 5828 5824 5820 5816 5812 5806 5802 5795 5788 5782 5775 5768 5760 5753 5744 5737 5732 5727 5722 5724 5722 5710 5709 5711 5711 5710 5710 5708 5709
5809 5802 5780 5774 5759 5744 5734 5762 5809 5819 5826 5828 5832 5836 5837 5836 5833 5833 5830 5828 5823 5819 5814 5808 5803 5797 5792 5786 5780 5775 5770 5764 5755 5747 5741 5732 5724 5718 5716 5712 5706 5697 5697 5700 5701 5700 5699 5698 5696
5818 5811 5788 5762 5764 5738 5734 5758 5824 5817 5820 5827 5832 5833 5833 5831 5826 5826 5822 5818 5814 5809 5803 5797 5793 5789 5784 5778 5773 5768 5763 5755 5749 5744 5738 5729 5718 5715 5710 5703 5697 5690 5692 5689 5691 5689 5690 5692 5689